,,Stat5,,Stat1,,Stat2,,Stat3,,Stat4,,Wind1,,Wind1,
time,status,PA1M_AVG,status,PR1M_SUM,status,RH1M_AVG,status,SR1M_AVG,status,TA1M_AVG,status,W1dAve1m,status,W1sAve1m,
2001-07-27, 00:00:01,VALID,917.775,VALID,0,VALID,95.027,VALID,0,VALID,19.1723,VALID,152,VALID,1.12352,
2001-07-27, 00:01:00,VALID,917.775,VALID,0,VALID,95.1364,VALID,0,VALID,19.1432,VALID,142,VALID,0.974029,
2001-07-27, 00:02:00,VALID,917.756,VALID,0,VALID,95.2292,VALID,0,VALID,19.1303,VALID,144,VALID,0.82492,
2001-07-27, 00:03:00,VALID,917.755,VALID,0,VALID,95.3881,VALID,-0.0169808,VALID,19.0977,VALID,134,VALID,0.846706,
2001-07-27, 00:04:00,VALID,917.762,VALID,0,VALID,95.5064,VALID,-0.0169808,VALID,19.0692,VALID,141,VALID,0.828125,
2001-07-27, 00:05:00,VALID,917.779,VALID,0,VALID,95.5891,VALID,-0.0169808,VALID,19.0463,VALID,131,VALID,0.764291,
2001-07-27, 00:06:00,VALID,917.762,VALID,0,VALID,95.6565,VALID,-0.0169808,VALID,19.0309,VALID,131,VALID,0.498437,
2001-07-27, 00:07:00,VALID,917.771,VALID,0,VALID,95.6984,VALID,0,VALID,19.0108,VALID,128,VALID,0.101763,
2001-07-27, 00:08:00,VALID,917.756,VALID,0,VALID,95.6272,VALID,0,VALID,19.0212,VALID,146,VALID,0.523643,
2001-07-27, 00:09:00,VALID,917.759,VALID,0,VALID,95.57,VALID,0,VALID,19.0177,VALID,122,VALID,0.326791,
2001-07-27, 00:10:00,VALID,917.756,VALID,0,VALID,95.4759,VALID,-0.0169808,VALID,19.0276,VALID,146,VALID,1.05859,
2001-07-27, 00:11:00,VALID,917.742,VALID,0,VALID,95.1618,VALID,-0.0339617,VALID,19.0406,VALID,150,VALID,1.63836,
2001-07-27, 00:12:00,VALID,917.727,VALID,0,VALID,94.9278,VALID,-0.0169808,VALID,19.0629,VALID,142,VALID,1.34245,
2001-07-27, 00:13:00,VALID,917.706,VALID,0,VALID,94.8032,VALID,-0.0679233,VALID,19.089,VALID,146,VALID,1.22741,
2001-07-27, 00:14:00,VALID,917.691,VALID,0,VALID,94.7981,VALID,-0.0169808,VALID,19.1086,VALID,156,VALID,1.56317,
2001-07-27, 00:15:00,VALID,917.67,VALID,0,VALID,94.7511,VALID,-0.0169808,VALID,19.1215,VALID,150,VALID,1.47841,
2001-07-27, 00:16:00,VALID,917.672,VALID,0,VALID,94.7167,VALID,0,VALID,19.1308,VALID,156,VALID,1.07285,
2001-07-27, 00:17:00,VALID,917.657,VALID,0,VALID,94.657,VALID,0,VALID,19.1407,VALID,148,VALID,1.26501,
2001-07-27, 00:18:00,VALID,917.653,VALID,0,VALID,94.6519,VALID,0,VALID,19.1305,VALID,157,VALID,1.00274,
2001-07-27, 00:19:00,VALID,917.645,VALID,0,VALID,94.573,VALID,-0.0509425,VALID,19.134,VALID,147,VALID,1.09434,
2001-07-27, 00:20:00,VALID,917.65,VALID,0,VALID,94.629,VALID,0,VALID,19.1303,VALID,161,VALID,0.984375,
2001-07-27, 00:21:00,VALID,917.647,VALID,0,VALID,94.643,VALID,-0.0169808,VALID,19.1372,VALID,172,VALID,0.807509,
2001-07-27, 00:22:00,VALID,917.641,VALID,0,VALID,94.6468,VALID,0,VALID,19.1146,VALID,167,VALID,0.889106,
2001-07-27, 00:23:00,VALID,917.634,VALID,0,VALID,94.7511,VALID,0,VALID,19.0952,VALID,160,VALID,1.14741,
2001-07-27, 00:24:00,VALID,917.626,VALID,0,VALID,94.8998,VALID,-0.0339617,VALID,19.0761,VALID,150,VALID,1.13705,
2001-07-27, 00:25:00,VALID,917.614,VALID,0,VALID,95.0893,VALID,-0.0509425,VALID,19.0468,VALID,150,VALID,0.903711,
2001-07-27, 00:26:00,VALID,917.616,VALID,0,VALID,95.13,VALID,0,VALID,19.011,VALID,144,VALID,0.615785,
2001-07-27, 00:27:00,VALID,917.608,VALID,0,VALID,95.1593,VALID,-0.0169808,VALID,18.9792,VALID,150,VALID,0.78639,
2001-07-27, 00:28:00,VALID,917.604,VALID,0,VALID,95.3106,VALID,-0.0169808,VALID,18.9469,VALID,117,VALID,0.646587,
2001-07-27, 00:29:00,VALID,917.591,VALID,0,VALID,95.4098,VALID,0,VALID,18.9213,VALID,119,VALID,0.239453,
2001-07-27, 00:30:00,VALID,917.578,VALID,0,VALID,95.4594,VALID,0,VALID,18.8987,VALID,105,VALID,0.188734,
2001-07-27, 00:31:01,VALID,917.566,VALID,0,VALID,95.4937,VALID,-0.0339617,VALID,18.8826,VALID,135,VALID,0.357319,
2001-07-27, 00:32:00,VALID,917.55,VALID,0,VALID,95.57,VALID,0,VALID,18.8463,VALID,101,VALID,0.331292,
2001-07-27, 00:33:00,VALID,917.521,VALID,0,VALID,95.542,VALID,0,VALID,18.8371,VALID,109,VALID,0.481771,
2001-07-27, 00:34:01,VALID,917.512,VALID,0,VALID,95.6628,VALID,-0.0169808,VALID,18.8279,VALID,122,VALID,0.537054,
2001-07-27, 00:35:01,VALID,917.498,VALID,0,VALID,95.7035,VALID,0,VALID,18.8247,VALID,138,VALID,0.657924,
2001-07-27, 00:36:00,VALID,917.501,VALID,0,VALID,95.809,VALID,0,VALID,18.821,VALID,161,VALID,1.20545,
2001-07-27, 00:37:00,VALID,917.495,VALID,0,VALID,95.7429,VALID,-0.0169808,VALID,18.8175,VALID,145,VALID,0.96516,
2001-07-27, 00:38:00,VALID,917.488,VALID,0,VALID,95.8027,VALID,-0.0339617,VALID,18.8274,VALID,150,VALID,1.18894,
2001-07-27, 00:39:00,VALID,917.48,VALID,0,VALID,95.7709,VALID,-0.0169808,VALID,18.8537,VALID,156,VALID,1.00705,
2001-07-27, 00:40:00,VALID,917.473,VALID,0,VALID,95.6946,VALID,-0.0169808,VALID,18.8632,VALID,141,VALID,1.16509,
2001-07-27, 00:41:00,VALID,917.455,VALID,0,VALID,95.5522,VALID,0,VALID,18.8634,VALID,146,VALID,1.13692,
2001-07-27, 00:42:00,VALID,917.455,VALID,0,VALID,95.5407,VALID,-0.0339617,VALID,18.8602,VALID,117,VALID,0.789931,
2001-07-27, 00:43:00,VALID,917.45,VALID,0,VALID,95.5446,VALID,0,VALID,18.8535,VALID,120,VALID,0.813133,
2001-07-27, 00:44:00,VALID,917.448,VALID,0,VALID,95.5407,VALID,0.0169808,VALID,18.8632,VALID,133,VALID,0.383929,
2001-07-27, 00:45:01,VALID,917.44,VALID,0,VALID,95.5954,VALID,-0.0169808,VALID,18.85,VALID,145,VALID,0.768298,
2001-07-27, 00:46:00,VALID,917.447,VALID,0,VALID,95.5891,VALID,0,VALID,18.8602,VALID,142,VALID,0.85853,
2001-07-27, 00:47:01,VALID,917.449,VALID,0,VALID,95.4835,VALID,0,VALID,18.8604,VALID,146,VALID,0.705387,
2001-07-27, 00:48:00,VALID,917.454,VALID,0,VALID,95.4848,VALID,-0.0169808,VALID,18.8602,VALID,131,VALID,0.939823,
2001-07-27, 00:49:00,VALID,917.456,VALID,0,VALID,95.5051,VALID,0,VALID,18.8468,VALID,149,VALID,0.807031,
2001-07-27, 00:50:00,VALID,917.447,VALID,0,VALID,95.5598,VALID,-0.0169808,VALID,18.8604,VALID,150,VALID,0.667558,
2001-07-27, 00:51:00,VALID,917.444,VALID,0,VALID,95.4797,VALID,0,VALID,18.8503,VALID,137,VALID,0.955078,
2001-07-27, 00:52:01,VALID,917.433,VALID,0,VALID,95.3055,VALID,0,VALID,18.854,VALID,151,VALID,0.447917,
2001-07-27, 00:53:00,VALID,917.426,VALID,0,VALID,95.2775,VALID,0,VALID,18.8445,VALID,149,VALID,0.722656,
2001-07-27, 00:54:00,VALID,917.396,VALID,0,VALID,95.1567,VALID,0,VALID,18.8279,VALID,155,VALID,0.892634,
2001-07-27, 00:55:00,VALID,917.406,VALID,0,VALID,95.0079,VALID,-0.0339617,VALID,18.8217,VALID,132,VALID,0.516016,
2001-07-27, 00:56:01,VALID,917.403,VALID,0,VALID,94.9723,VALID,0,VALID,18.8055,VALID,147,VALID,0.505609,
2001-07-27, 00:57:00,VALID,917.409,VALID,0,VALID,95.0054,VALID,-0.0169808,VALID,18.7991,VALID,157,VALID,0.653988,
2001-07-27, 00:58:00,VALID,917.401,VALID,0,VALID,94.9558,VALID,-0.0169808,VALID,18.7859,VALID,94,VALID,0.320107,
2001-07-27, 00:59:00,VALID,917.414,VALID,0,VALID,94.8655,VALID,0,VALID,18.7474,VALID,65,VALID,0,
2001-07-27, 01:00:00,VALID,917.416,VALID,0,VALID,95.0207,VALID,-0.0169808,VALID,18.7213,VALID,137,VALID,0.0682566,
2001-07-27, 01:01:01,VALID,917.429,VALID,0,VALID,95.1186,VALID,0,VALID,18.6893,VALID,172,VALID,0.205592,
2001-07-27, 01:02:00,VALID,917.433,VALID,0,VALID,95.2762,VALID,-0.0169808,VALID,18.6768,VALID,202,VALID,0.357264,
2001-07-27, 01:03:00,VALID,917.44,VALID,0,VALID,95.4174,VALID,-0.0679233,VALID,18.6443,VALID,215,VALID,0.0523003,
2001-07-27, 01:04:01,VALID,917.438,VALID,0,VALID,95.5178,VALID,-0.0169808,VALID,18.618,VALID,191,VALID,0.20625,
2001-07-27, 01:05:01,VALID,917.45,VALID,0,VALID,95.5522,VALID,-0.0169808,VALID,18.5921,VALID,207,VALID,0.183036,
2001-07-27, 01:06:00,VALID,917.431,VALID,0,VALID,95.5941,VALID,-0.0169808,VALID,18.5772,VALID,219,VALID,0.359164,
2001-07-27, 01:07:00,VALID,917.42,VALID,0,VALID,95.7327,VALID,0,VALID,18.5474,VALID,228,VALID,0.473606,
2001-07-27, 01:08:00,VALID,917.4,VALID,0,VALID,95.982,VALID,-0.0339617,VALID,18.5186,VALID,217,VALID,0.349301,
2001-07-27, 01:09:00,VALID,917.38,VALID,0,VALID,96.1676,VALID,-0.0339617,VALID,18.4987,VALID,210,VALID,0.160633,
2001-07-27, 01:10:00,VALID,917.376,VALID,0,VALID,96.1498,VALID,-0.0169808,VALID,18.4731,VALID,178,VALID,0.335938,
2001-07-27, 01:11:00,VALID,917.358,VALID,0,VALID,96.1689,VALID,-0.0509425,VALID,18.4376,VALID,155,VALID,0.467928,
2001-07-27, 01:12:00,VALID,917.372,VALID,0,VALID,96.3533,VALID,-0.0339617,VALID,18.4021,VALID,165,VALID,0.827691,
2001-07-27, 01:13:00,VALID,917.364,VALID,0,VALID,96.6407,VALID,0,VALID,18.3986,VALID,149,VALID,0.821368,
2001-07-27, 01:14:00,VALID,917.368,VALID,0,VALID,96.8467,VALID,-0.0339617,VALID,18.415,VALID,154,VALID,1.37054,
2001-07-27, 01:15:01,VALID,917.38,VALID,0,VALID,96.9281,VALID,-0.0339617,VALID,18.4247,VALID,154,VALID,1.28906,
2001-07-27, 01:16:00,VALID,917.363,VALID,0,VALID,96.9471,VALID,0,VALID,18.4634,VALID,152,VALID,1.2272,
2001-07-27, 01:17:01,VALID,917.325,VALID,0,VALID,96.8467,VALID,-0.0339617,VALID,18.4957,VALID,145,VALID,1.24718,
2001-07-27, 01:18:00,VALID,917.325,VALID,0,VALID,96.7538,VALID,-0.0339617,VALID,18.5183,VALID,144,VALID,1.48649,
2001-07-27, 01:19:00,VALID,917.314,VALID,0,VALID,96.5466,VALID,-0.0509425,VALID,18.5571,VALID,148,VALID,1.18945,
2001-07-27, 01:20:00,VALID,917.292,VALID,0,VALID,96.3266,VALID,-0.0169808,VALID,18.6021,VALID,148,VALID,1.43544,
2001-07-27, 01:21:00,VALID,917.271,VALID,0,VALID,96.1765,VALID,0,VALID,18.6344,VALID,148,VALID,1.0523,
2001-07-27, 01:22:01,VALID,917.239,VALID,0,VALID,96.0723,VALID,0,VALID,18.6704,VALID,141,VALID,0.853299,
2001-07-27, 01:23:00,VALID,917.214,VALID,0,VALID,95.9349,VALID,0,VALID,18.6634,VALID,131,VALID,0.981702,
2001-07-27, 01:24:00,VALID,917.2,VALID,0,VALID,95.8701,VALID,-0.0169808,VALID,18.6644,VALID,125,VALID,0.944866,
2001-07-27, 01:25:00,VALID,917.188,VALID,0,VALID,95.8179,VALID,-0.0169808,VALID,18.6507,VALID,111,VALID,0.62832,
2001-07-27, 01:26:00,VALID,917.182,VALID,0,VALID,95.7785,VALID,0,VALID,18.6507,VALID,126,VALID,0.751603,
2001-07-27, 01:27:01,VALID,917.172,VALID,0,VALID,95.7645,VALID,-0.0339617,VALID,18.6408,VALID,137,VALID,1.15933,
2001-07-27, 01:28:00,VALID,917.153,VALID,0,VALID,95.6692,VALID,0,VALID,18.6763,VALID,134,VALID,1.1215,
2001-07-27, 01:29:00,VALID,917.157,VALID,0,VALID,95.4365,VALID,-0.0169808,VALID,18.6763,VALID,147,VALID,0.326758,
2001-07-27, 01:30:00,VALID,917.128,VALID,0,VALID,95.3945,VALID,0,VALID,18.6964,VALID,146,VALID,1.05839,
2001-07-27, 01:31:01,VALID,917.121,VALID,0,VALID,95.4059,VALID,-0.0169808,VALID,18.7019,VALID,143,VALID,0.928865,
2001-07-27, 01:32:00,VALID,917.096,VALID,0,VALID,95.294,VALID,0,VALID,18.7218,VALID,123,VALID,0.508657,
2001-07-27, 01:33:00,VALID,917.074,VALID,0,VALID,95.219,VALID,-0.0169808,VALID,18.7123,VALID,123,VALID,0.584852,
2001-07-27, 01:34:01,VALID,917.059,VALID,0,VALID,95.1211,VALID,-0.0169808,VALID,18.6897,VALID,116,VALID,0.596429,
2001-07-27, 01:35:01,VALID,917.044,VALID,0,VALID,95.1059,VALID,0,VALID,18.6639,VALID,96,VALID,0.88244,
2001-07-27, 01:36:00,VALID,917.034,VALID,0,VALID,95.3297,VALID,-0.0169808,VALID,18.6214,VALID,93,VALID,0.872889,
2001-07-27, 01:37:00,VALID,917.021,VALID,0,VALID,95.6094,VALID,-0.0169808,VALID,18.606,VALID,107,VALID,1.21178,
2001-07-27, 01:38:00,VALID,917.023,VALID,0,VALID,95.6056,VALID,0,VALID,18.5469,VALID,89,VALID,0.850946,
2001-07-27, 01:39:00,VALID,917.022,VALID,0,VALID,95.8904,VALID,0,VALID,18.5052,VALID,89,VALID,0.963796,
2001-07-27, 01:40:00,VALID,917.005,VALID,0,VALID,96.216,VALID,0,VALID,18.4634,VALID,84,VALID,0.868215,
2001-07-27, 01:41:00,VALID,917.004,VALID,0,VALID,96.1155,VALID,-0.0169808,VALID,18.4118,VALID,90,VALID,0.904194,
2001-07-27, 01:42:01,VALID,917.003,VALID,0,VALID,96.4296,VALID,-0.0169808,VALID,18.3631,VALID,98,VALID,0.861111,
2001-07-27, 01:43:00,VALID,916.997,VALID,0,VALID,96.7297,VALID,0,VALID,18.3474,VALID,75,VALID,1.07221,
2001-07-27, 01:44:00,VALID,916.991,VALID,0,VALID,96.6483,VALID,-0.0169808,VALID,18.3017,VALID,69,VALID,0.981696,
2001-07-27, 01:45:01,VALID,916.989,VALID,0,VALID,96.6992,VALID,-0.0339617,VALID,18.2699,VALID,55,VALID,1.00164,
2001-07-27, 01:46:01,VALID,916.98,VALID,0,VALID,96.9153,VALID,0,VALID,18.2374,VALID,56,VALID,1.13281,
2001-07-27, 01:47:01,VALID,916.99,VALID,0,VALID,96.8607,VALID,-0.0169808,VALID,18.1984,VALID,42,VALID,0.853002,
2001-07-27, 01:48:00,VALID,916.995,VALID,0,VALID,96.9115,VALID,0,VALID,18.1502,VALID,40,VALID,0.71136,
2001-07-27, 01:49:00,VALID,917.002,VALID,0,VALID,97.1213,VALID,0.0169808,VALID,18.1308,VALID,61,VALID,0.642773,
2001-07-27, 01:50:00,VALID,917.015,VALID,0,VALID,97.3223,VALID,0,VALID,18.1179,VALID,69,VALID,0.674959,
2001-07-27, 01:51:00,VALID,917.03,VALID,0,VALID,97.4189,VALID,0,VALID,18.108,VALID,68,VALID,0.68099,
2001-07-27, 01:52:01,VALID,917.031,VALID,0,VALID,97.555,VALID,0.0339617,VALID,18.108,VALID,73,VALID,0.764323,
2001-07-27, 01:53:00,VALID,917.014,VALID,0,VALID,97.5982,VALID,-0.0169808,VALID,18.0859,VALID,58,VALID,0.921464,
2001-07-27, 01:54:00,VALID,917.006,VALID,0,VALID,97.4965,VALID,0,VALID,18.0566,VALID,54,VALID,0.963616,
2001-07-27, 01:55:00,VALID,916.99,VALID,0,VALID,97.5155,VALID,0,VALID,18.0372,VALID,56,VALID,1.04902,
2001-07-27, 01:56:01,VALID,916.976,VALID,0,VALID,97.6325,VALID,0,VALID,18.031,VALID,62,VALID,0.930889,
2001-07-27, 01:57:00,VALID,916.988,VALID,0,VALID,97.6198,VALID,0,VALID,18.0213,VALID,78,VALID,0.63713,
2001-07-27, 01:58:00,VALID,916.994,VALID,0,VALID,97.5982,VALID,0,VALID,17.9922,VALID,76,VALID,0.677837,
2001-07-27, 01:59:00,VALID,916.987,VALID,0,VALID,97.5906,VALID,-0.0169808,VALID,17.9662,VALID,73,VALID,0.576758,
2001-07-27, 02:00:00,VALID,916.998,VALID,0,VALID,97.5817,VALID,0,VALID,17.9507,VALID,99,VALID,0.550781,
2001-07-27, 02:01:01,VALID,917.003,VALID,0,VALID,97.5105,VALID,-0.0169808,VALID,17.915,VALID,89,VALID,0.578536,
2001-07-27, 02:02:00,VALID,916.987,VALID,0,VALID,97.4024,VALID,-0.0169808,VALID,17.8857,VALID,82,VALID,0.638514,
2001-07-27, 02:03:00,VALID,916.972,VALID,0,VALID,97.4392,VALID,0,VALID,17.8499,VALID,80,VALID,0.75217,
2001-07-27, 02:04:01,VALID,916.953,VALID,0,VALID,97.4481,VALID,0,VALID,17.8433,VALID,111,VALID,0.65067,
2001-07-27, 02:05:01,VALID,916.918,VALID,0,VALID,97.5791,VALID,-0.0169808,VALID,17.8439,VALID,116,VALID,0.510231,
2001-07-27, 02:06:00,VALID,916.889,VALID,0,VALID,97.555,VALID,0,VALID,17.8405,VALID,128,VALID,0.650549,
2001-07-27, 02:07:01,VALID,916.865,VALID,0,VALID,97.5702,VALID,0.0169808,VALID,17.8338,VALID,114,VALID,0.697846,
2001-07-27, 02:08:00,VALID,916.851,VALID,0,VALID,97.5461,VALID,-0.0169808,VALID,17.8342,VALID,101,VALID,0.695929,
2001-07-27, 02:09:00,VALID,916.832,VALID,0,VALID,97.3757,VALID,0,VALID,17.8082,VALID,90,VALID,0.706555,
2001-07-27, 02:10:00,VALID,916.823,VALID,0,VALID,97.1201,VALID,0,VALID,17.7634,VALID,97,VALID,0.37685,
2001-07-27, 02:11:01,VALID,916.818,VALID,0,VALID,97.115,VALID,0.0169808,VALID,17.7079,VALID,90,VALID,0,
2001-07-27, 02:12:00,VALID,916.809,VALID,0,VALID,97.251,VALID,-0.0169808,VALID,17.7079,VALID,88,VALID,0,
2001-07-27, 02:13:01,VALID,916.807,VALID,0,VALID,97.265,VALID,0,VALID,17.6857,VALID,86,VALID,0,
2001-07-27, 02:14:01,VALID,916.8,VALID,0,VALID,97.3693,VALID,-0.0169808,VALID,17.6728,VALID,90,VALID,0,
2001-07-27, 02:15:01,VALID,916.8,VALID,0,VALID,97.3273,VALID,0,VALID,17.6601,VALID,90,VALID,0,
2001-07-27, 02:16:01,VALID,916.802,VALID,0,VALID,97.4036,VALID,-0.0679233,VALID,17.6442,VALID,114,VALID,0,
2001-07-27, 02:17:01,VALID,916.802,VALID,0,VALID,97.5003,VALID,-0.0679233,VALID,17.6407,VALID,157,VALID,0,
2001-07-27, 02:18:01,VALID,916.798,VALID,0,VALID,97.6541,VALID,-0.0509425,VALID,17.6403,VALID,156,VALID,0,
2001-07-27, 02:19:01,VALID,916.794,VALID,0,VALID,97.7203,VALID,-0.0509425,VALID,17.6606,VALID,144,VALID,0,
2001-07-27, 02:20:01,VALID,916.784,VALID,0,VALID,97.8258,VALID,-0.0849042,VALID,17.6633,VALID,125,VALID,0,
2001-07-27, 02:21:01,VALID,916.776,VALID,0,VALID,97.897,VALID,-0.0169808,VALID,17.6929,VALID,122,VALID,0,
2001-07-27, 02:22:01,VALID,916.762,VALID,0,VALID,97.7203,VALID,0,VALID,17.6926,VALID,136,VALID,0,
2001-07-27, 02:23:00,VALID,916.762,VALID,0,VALID,97.0514,VALID,0,VALID,17.6311,VALID,66,VALID,0,
2001-07-27, 02:24:01,VALID,916.776,VALID,0,VALID,96.4894,VALID,-0.0339617,VALID,17.4952,VALID,56,VALID,0,
2001-07-27, 02:25:01,VALID,916.781,VALID,0,VALID,96.7844,VALID,-0.0509425,VALID,17.4731,VALID,48,VALID,0,
2001-07-27, 02:26:01,VALID,916.798,VALID,0,VALID,96.8556,VALID,-0.0339617,VALID,17.4445,VALID,35,VALID,0,
2001-07-27, 02:27:01,VALID,916.811,VALID,0,VALID,97.0158,VALID,-0.0339617,VALID,17.4249,VALID,35,VALID,0,
2001-07-27, 02:28:01,VALID,916.824,VALID,0,VALID,97.3108,VALID,-0.0339617,VALID,17.4249,VALID,38,VALID,0,
2001-07-27, 02:29:01,VALID,916.838,VALID,0,VALID,97.8754,VALID,-0.0509425,VALID,17.4765,VALID,106,VALID,0,
2001-07-27, 02:30:01,VALID,916.845,VALID,0,VALID,98.1246,VALID,-0.0509425,VALID,17.5798,VALID,132,VALID,0,
2001-07-27, 02:31:01,VALID,916.837,VALID,0,VALID,98.0941,VALID,-0.0849042,VALID,17.6576,VALID,134,VALID,0,
2001-07-27, 02:32:01,VALID,916.84,VALID,0,VALID,97.9975,VALID,-0.0509425,VALID,17.7482,VALID,133,VALID,0,
2001-07-27, 02:33:01,VALID,916.829,VALID,0,VALID,97.7355,VALID,-0.0679233,VALID,17.8188,VALID,141,VALID,0.00130208,
2001-07-27, 02:34:01,VALID,916.813,VALID,0,VALID,97.3146,VALID,-0.0509425,VALID,17.8674,VALID,148,VALID,1.05223,
2001-07-27, 02:35:01,VALID,916.803,VALID,0,VALID,97.0768,VALID,0,VALID,17.8995,VALID,152,VALID,1.02604,
2001-07-27, 02:36:01,VALID,916.798,VALID,0,VALID,96.7984,VALID,-0.0339617,VALID,17.9159,VALID,154,VALID,0.969595,
2001-07-27, 02:37:01,VALID,916.789,VALID,0,VALID,96.4894,VALID,-0.0169808,VALID,17.9191,VALID,150,VALID,0.921242,
2001-07-27, 02:38:01,VALID,916.781,VALID,0,VALID,96.2999,VALID,-0.0679233,VALID,17.8933,VALID,145,VALID,0.929688,
2001-07-27, 02:39:01,VALID,916.762,VALID,0,VALID,96.2299,VALID,-0.0509425,VALID,17.8737,VALID,135,VALID,0.866235,
2001-07-27, 02:40:01,VALID,916.762,VALID,0,VALID,96.4194,VALID,-0.0339617,VALID,17.8674,VALID,131,VALID,0.936266,
2001-07-27, 02:41:01,VALID,916.754,VALID,0,VALID,96.4627,VALID,-0.0509425,VALID,17.8896,VALID,133,VALID,0.876234,
2001-07-27, 02:42:01,VALID,916.752,VALID,0,VALID,96.3978,VALID,-0.0339617,VALID,17.9262,VALID,141,VALID,0.893229,
2001-07-27, 02:43:01,VALID,916.749,VALID,0,VALID,96.305,VALID,-0.0339617,VALID,17.9482,VALID,142,VALID,0.8731,
2001-07-27, 02:44:00,VALID,916.744,VALID,0,VALID,96.2312,VALID,-0.0509425,VALID,17.9804,VALID,143,VALID,1.01987,
2001-07-27, 02:45:00,VALID,916.737,VALID,0,VALID,96.1206,VALID,-0.0169808,VALID,18.0097,VALID,139,VALID,0.91324,
2001-07-27, 02:46:00,VALID,916.723,VALID,0,VALID,96.0227,VALID,0,VALID,18.0319,VALID,138,VALID,0.803843,
2001-07-27, 02:47:00,VALID,916.71,VALID,0,VALID,95.809,VALID,-0.0509425,VALID,18.0483,VALID,132,VALID,0.656044,
2001-07-27, 02:48:00,VALID,916.686,VALID,0,VALID,95.7417,VALID,-0.0339617,VALID,18.0612,VALID,122,VALID,0.757813,
2001-07-27, 02:49:00,VALID,916.668,VALID,0,VALID,95.6488,VALID,0,VALID,18.0704,VALID,125,VALID,0.793359,
2001-07-27, 02:50:00,VALID,916.653,VALID,0,VALID,95.4708,VALID,0,VALID,18.0674,VALID,134,VALID,0.882196,
2001-07-27, 02:51:00,VALID,916.64,VALID,0,VALID,95.3716,VALID,-0.0339617,VALID,18.0639,VALID,143,VALID,1.10438,
2001-07-27, 02:52:00,VALID,916.626,VALID,0,VALID,95.322,VALID,-0.0339617,VALID,18.0704,VALID,145,VALID,1.0102,
2001-07-27, 02:53:00,VALID,916.612,VALID,0,VALID,95.3309,VALID,-0.0339617,VALID,18.0639,VALID,151,VALID,1.21217,
2001-07-27, 02:54:00,VALID,916.584,VALID,0,VALID,95.3449,VALID,-0.0169808,VALID,18.0739,VALID,144,VALID,1.00246,
2001-07-27, 02:55:00,VALID,916.575,VALID,0,VALID,95.2979,VALID,-0.0339617,VALID,18.0803,VALID,146,VALID,0.798242,
2001-07-27, 02:56:00,VALID,916.565,VALID,0,VALID,95.2788,VALID,-0.0169808,VALID,18.0672,VALID,132,VALID,0.907853,
2001-07-27, 02:57:00,VALID,916.553,VALID,0,VALID,95.3398,VALID,-0.0509425,VALID,18.0642,VALID,134,VALID,0.835526,
2001-07-27, 02:58:00,VALID,916.541,VALID,0,VALID,95.378,VALID,0,VALID,18.0775,VALID,114,VALID,0.78125,
2001-07-27, 02:59:00,VALID,916.551,VALID,0,VALID,95.3131,VALID,-0.0339617,VALID,18.0805,VALID,111,VALID,0.644727,
2001-07-27, 03:00:00,VALID,916.548,VALID,0,VALID,95.3576,VALID,-0.0339617,VALID,18.087,VALID,110,VALID,0.7794,
2001-07-27, 03:01:00,VALID,916.547,VALID,0,VALID,95.3144,VALID,-0.0339617,VALID,18.0969,VALID,101,VALID,0.954975,
2001-07-27, 03:02:00,VALID,916.548,VALID,0,VALID,95.5293,VALID,-0.0339617,VALID,18.1195,VALID,103,VALID,1.2065,
2001-07-27, 03:03:00,VALID,916.53,VALID,0,VALID,95.6043,VALID,-0.0679233,VALID,18.132,VALID,104,VALID,1.07943,
2001-07-27, 03:04:00,VALID,916.532,VALID,0,VALID,95.5178,VALID,-0.0169808,VALID,18.161,VALID,105,VALID,0.732366,
2001-07-27, 03:05:00,VALID,916.526,VALID,0,VALID,95.4683,VALID,0,VALID,18.1737,VALID,95,VALID,0.800037,
2001-07-27, 03:06:00,VALID,916.526,VALID,0,VALID,95.0423,VALID,-0.0509425,VALID,18.1772,VALID,76,VALID,1.00422,
2001-07-27, 03:07:00,VALID,916.511,VALID,0,VALID,94.8693,VALID,-0.0339617,VALID,18.1322,VALID,73,VALID,1.15963,
2001-07-27, 03:08:00,VALID,916.517,VALID,0,VALID,94.9113,VALID,-0.0339617,VALID,18.0709,VALID,72,VALID,1.04605,
2001-07-27, 03:09:00,VALID,916.523,VALID,0,VALID,95.0868,VALID,-0.0169808,VALID,17.9929,VALID,78,VALID,1.04764,
2001-07-27, 03:10:00,VALID,916.52,VALID,0,VALID,95.3106,VALID,-0.0169808,VALID,17.9348,VALID,85,VALID,0.99815,
2001-07-27, 03:11:00,VALID,916.511,VALID,0,VALID,95.7938,VALID,-0.0169808,VALID,17.8794,VALID,79,VALID,0.989309,
2001-07-27, 03:12:00,VALID,916.502,VALID,0,VALID,95.94,VALID,-0.0169808,VALID,17.8446,VALID,79,VALID,0.840929,
2001-07-27, 03:13:00,VALID,916.499,VALID,0,VALID,96.085,VALID,-0.0339617,VALID,17.7959,VALID,85,VALID,0.791174,
2001-07-27, 03:14:00,VALID,916.507,VALID,0,VALID,96.2655,VALID,0,VALID,17.7537,VALID,86,VALID,0.701563,
2001-07-27, 03:15:00,VALID,916.505,VALID,0,VALID,96.441,VALID,-0.0169808,VALID,17.7055,VALID,90,VALID,0.815173,
2001-07-27, 03:16:00,VALID,916.482,VALID,0,VALID,96.6979,VALID,-0.0169808,VALID,17.6601,VALID,86,VALID,0.786106,
2001-07-27, 03:17:00,VALID,916.486,VALID,0,VALID,96.8607,VALID,0,VALID,17.6248,VALID,82,VALID,0.80736,
2001-07-27, 03:18:00,VALID,916.472,VALID,0,VALID,96.82,VALID,-0.0339617,VALID,17.5702,VALID,74,VALID,0.631546,
2001-07-27, 03:19:00,VALID,916.469,VALID,0,VALID,96.9268,VALID,0,VALID,17.5278,VALID,87,VALID,0.402148,
2001-07-27, 03:20:00,VALID,916.464,VALID,0,VALID,97.2472,VALID,0,VALID,17.5017,VALID,123,VALID,0.818051,
2001-07-27, 03:21:00,VALID,916.457,VALID,0,VALID,97.6783,VALID,0,VALID,17.5441,VALID,131,VALID,0.923828,
2001-07-27, 03:22:00,VALID,916.445,VALID,0,VALID,97.8423,VALID,-0.0169808,VALID,17.5665,VALID,136,VALID,0.862847,
2001-07-27, 03:23:00,VALID,916.433,VALID,0,VALID,97.8067,VALID,0,VALID,17.5762,VALID,142,VALID,1.02508,
2001-07-27, 03:24:00,VALID,916.423,VALID,0,VALID,97.7203,VALID,0.0169808,VALID,17.5699,VALID,143,VALID,0.750223,
2001-07-27, 03:25:00,VALID,916.422,VALID,0,VALID,97.6694,VALID,0,VALID,17.5446,VALID,131,VALID,0.851953,
2001-07-27, 03:26:00,VALID,916.411,VALID,0,VALID,97.7737,VALID,0,VALID,17.5344,VALID,132,VALID,0.903245,
2001-07-27, 03:27:00,VALID,916.388,VALID,0,VALID,97.8067,VALID,0,VALID,17.528,VALID,118,VALID,0.38898,
2001-07-27, 03:28:00,VALID,916.378,VALID,0,VALID,97.8919,VALID,-0.0509425,VALID,17.5448,VALID,123,VALID,1.07257,
2001-07-27, 03:29:00,VALID,916.373,VALID,0,VALID,97.7978,VALID,-0.0849042,VALID,17.5609,VALID,110,VALID,0.74043,
2001-07-27, 03:30:00,VALID,916.358,VALID,0,VALID,97.5867,VALID,-0.101885,VALID,17.5775,VALID,119,VALID,0.559005,
2001-07-27, 03:31:00,VALID,916.351,VALID,0,VALID,97.4367,VALID,-0.101885,VALID,17.6005,VALID,118,VALID,0.533306,
2001-07-27, 03:32:00,VALID,916.354,VALID,0,VALID,97.2981,VALID,-0.101885,VALID,17.5936,VALID,109,VALID,0.441512,
2001-07-27, 03:33:00,VALID,916.353,VALID,0,VALID,97.4049,VALID,-0.0849042,VALID,17.6427,VALID,109,VALID,1.23134,
2001-07-27, 03:34:00,VALID,916.359,VALID,0,VALID,97.3121,VALID,-0.101885,VALID,17.681,VALID,108,VALID,1.07723,
2001-07-27, 03:35:00,VALID,916.355,VALID,0,VALID,97.0005,VALID,-0.101885,VALID,17.7168,VALID,101,VALID,0.947917,